Sault Ste Marie, MI

7:20 AM EDT on July 28, 2017 (GMT -0400)
Sault Ste Marie Municipal / Sanderson Field

Weather History for KANJ - April, 2014

Change the Weather History Date:

Tuesday, April 1, 2014

  Actual Average Record
Temperature  
Mean Temperature 30 °F 33 °F  
Max Temperature 38 °F 42 °F 67 °F (1945)
Min Temperature 21 °F 25 °F -13 °F (1923)
Degree Days  
Heating Degree Days 35 32  
Month to date heating degree days 35 32  
Since 1 July heating degree days 8249 7358  
Cooling Degree Days 0 0  
Month to date cooling degree days 0 0  
Year to date cooling degree days 0 0  
Moisture  
Dew Point 27 °F    
Average Humidity 67    
Maximum Humidity 89    
Minimum Humidity 44    
Precipitation  
Precipitation 0.15 in 0.08 in 0.68 in (2008)
Month to date precipitation 0.15 0.08  
Year to date precipitation 5.22 5.56  
Snow  
Snow 1.10 in 0.40 in 5.30 in (1950)
Month to date snowfall 1.1 0.4  
Since 1 July snowfall 125.4 114.0  
Snow Depth 27.00 in    
Sea Level Pressure  
Sea Level Pressure 29.73 in    
Wind  
Wind Speed 12 mph (SW)    
Max Wind Speed 25 mph    
Max Gust Speed 35 mph    
Visibility 5 miles    
Events Rain , Snow    
T = Trace of Precipitation, MM = Missing Value Source: NWS Daily Summary

Daily Weather History Graph

Daily Weather History Graph

Search for Another Location

Airport or City:

Trip Planner

Search our weather history database for the weather conditions in past years. The results will help you decide how hot, cold, wet, or windy it might be!

Date:

Astronomy

Apr. 01, 2014 Rise Set
Actual Time 7:17 AM EDT 8:06 PM EDT
Civil Twilight 6:46 AM EDT 8:37 PM EDT
Nautical Twilight 6:10 AM EDT 9:13 PM EDT
Astronomical Twilight 5:32 AM EDT 9:51 PM EDT
Moon 8:12 AM EDT (4/1) 10:36 PM EDT (4/1)
Length of Visible Light 13h 50m
Length of Day
12h 49m
Waxing Crescent, 4% of the Moon is Illuminated
Apr 1
Waxing Crescent
Apr 7
First Quarter
Apr 15
Full
Apr 22
Last Quarter
Apr 29
New

Hourly Weather History & Observations

Time (EDT) Temp. Windchill Dew Point Humidity Pressure Visibility Wind Dir Wind Speed Gust Speed Precip Events Conditions
12:55 AM 39.0 °F 30.6 °F 19.0 °F 45% 29.89 in 10.0 mi ESE 15.0 mph 25.3 mph N/A   Mostly Cloudy
1:55 AM 37.9 °F 29.2 °F 21.9 °F 53% 29.88 in 10.0 mi ESE 15.0 mph 26.5 mph N/A   Overcast
2:55 AM 36.0 °F 28.5 °F 26.1 °F 67% 29.86 in 10.0 mi ESE 10.4 mph 23.0 mph 0.01 in Rain Light Rain
3:55 AM 36.0 °F 27.5 °F 28.0 °F 73% 29.86 in 10.0 mi ESE 12.7 mph 21.9 mph 0.00 in   Overcast
4:55 AM 36.0 °F 27.1 °F 28.9 °F 76% 29.82 in 10.0 mi ESE 13.8 mph 20.7 mph 0.00 in Rain Light Rain
5:55 AM 35.1 °F 25.9 °F 30.9 °F 85% 29.77 in 5.0 mi East 13.8 mph - 0.08 in Rain Rain
8:55 AM 36.0 °F 27.5 °F 32.0 °F 86% 29.69 in 10.0 mi ESE 12.7 mph 23.0 mph N/A   Overcast
9:55 AM 35.1 °F 26.4 °F 32.0 °F 89% 29.68 in 4.0 mi ESE 12.7 mph 21.9 mph 0.03 in Rain Rain
10:55 AM 36.0 °F 28.0 °F 32.0 °F 86% 29.65 in 10.0 mi ESE 11.5 mph - 0.05 in Rain Light Rain
11:41 AM 36.0 °F 29.0 °F 32.0 °F 86% 29.62 in 10.0 mi ESE 9.2 mph 20.7 mph 0.00 in Rain Light Rain
11:55 AM 36.0 °F 28.0 °F 32.0 °F 86% 29.63 in 10.0 mi ESE 11.5 mph 18.4 mph 0.00 in Rain Light Rain
12:55 PM 36.0 °F 28.5 °F 32.0 °F 86% 29.62 in 8.0 mi ESE 10.4 mph - 0.00 in Rain Light Rain
1:05 PM 36.0 °F 28.0 °F 32.0 °F 86% 29.59 in 10.0 mi ESE 11.5 mph 19.6 mph 0.00 in Rain Light Rain
1:16 PM 36.0 °F 28.5 °F 32.0 °F 86% 29.60 in 10.0 mi ESE 10.4 mph - 0.00 in Rain Light Rain
1:55 PM 36.0 °F 29.6 °F 32.0 °F 86% 29.63 in 10.0 mi SE 8.1 mph - 0.00 in   Overcast
2:55 PM 35.1 °F 26.9 °F 30.9 °F 85% 29.64 in 3.0 mi WSW 11.5 mph - 0.00 in Rain Light Rain
3:04 PM 35.1 °F 27.4 °F 30.9 °F 85% 29.63 in 2.5 mi SW 10.4 mph - 0.00 in Rain Light Rain
3:16 PM 34.0 °F 27.2 °F 32.0 °F 92% 29.63 in 4.0 mi South 8.1 mph - 0.00 in Rain Light Rain
3:55 PM 34.0 °F 26.6 °F 30.0 °F 85% 29.65 in 6.0 mi SSW 9.2 mph - 0.00 in Rain Light Rain
4:48 PM 32.0 °F 23.0 °F 27.0 °F 82% 29.66 in 1.8 mi SW 11.5 mph 26.5 mph 0.00 in Snow Light Snow
4:55 PM 32.0 °F 20.8 °F 27.0 °F 82% 29.68 in 1.0 mi SW 17.3 mph 24.2 mph 0.01 in Snow Light Snow
5:08 PM 32.0 °F 24.8 °F 28.0 °F 85% 29.66 in 0.8 mi SSW 8.1 mph - 0.00 in Snow Light Snow
5:26 PM 30.9 °F 24.3 °F 28.0 °F 89% 29.66 in 1.0 mi SW 6.9 mph - 0.02 in Snow Light Snow
5:41 PM 30.9 °F 22.2 °F 27.0 °F 85% 29.66 in 3.0 mi SW 10.4 mph - 0.02 in Snow Light Snow
5:45 PM 30.9 °F 21.2 °F 27.0 °F 85% 29.66 in 2.5 mi SW 12.7 mph 18.4 mph 0.02 in Snow Light Snow
5:48 PM 30.9 °F 21.2 °F 27.0 °F 85% 29.67 in 1.8 mi SW 12.7 mph 23.0 mph 0.02 in Snow Light Snow
5:55 PM 30.9 °F 22.2 °F 27.0 °F 85% 29.69 in 0.8 mi SW 10.4 mph 23.0 mph 0.02 in Snow Light Snow
6:00 PM 30.9 °F 21.7 °F 27.0 °F 85% 29.68 in 0.8 mi SW 11.5 mph - 0.00 in Snow Light Snow
6:07 PM 30.9 °F 22.2 °F 27.0 °F 85% 29.68 in 0.8 mi SW 10.4 mph 19.6 mph 0.01 in Snow Light Snow
6:16 PM 30.9 °F 22.2 °F 27.0 °F 85% 29.69 in 1.5 mi SW 10.4 mph - 0.01 in Snow Light Snow
6:29 PM 30.9 °F 22.2 °F 27.0 °F 85% 29.69 in 0.8 mi SW 10.4 mph - 0.01 in Snow Light Snow
6:47 PM 30.9 °F 22.2 °F 27.0 °F 85% 29.70 in 1.2 mi WSW 10.4 mph - 0.03 in Snow Light Snow
6:55 PM 30.9 °F 22.8 °F 27.0 °F 85% 29.72 in 2.0 mi SW 9.2 mph - 0.03 in Snow Light Snow
7:03 PM 30.9 °F 22.2 °F 27.0 °F 85% 29.70 in 5.0 mi SW 10.4 mph - 0.00 in Snow Light Snow
7:53 PM 30.2 °F 17.8 °F 26.6 °F 86% 29.73 in 1.8 mi West 19.6 mph 28.8 mph 0.01 in Snow Light Snow
7:55 PM 30.0 °F 17.9 °F 26.1 °F 85% 29.76 in 1.8 mi West 18.4 mph 28.8 mph 0.01 in Snow Light Snow
8:01 PM 28.9 °F 16.5 °F 26.1 °F 89% 29.75 in 3.0 mi WNW 18.4 mph 28.8 mph 0.00 in Snow Light Snow
8:08 PM 28.9 °F 18.2 °F 25.0 °F 85% 29.75 in 6.0 mi WNW 13.8 mph 28.8 mph 0.00 in   Overcast
8:34 PM 27.0 °F 15.6 °F 21.9 °F 81% 29.77 in 7.0 mi WNW 13.8 mph 29.9 mph 0.00 in   Overcast
8:55 PM 26.1 °F 12.0 °F 21.9 °F 84% 29.81 in 6.0 mi WNW 20.7 mph 28.8 mph 0.00 in Snow Light Snow
9:34 PM 26.1 °F 14.0 °F 21.9 °F 84% 29.81 in 6.0 mi WNW 15.0 mph 21.9 mph 0.00 in Rain Light Freezing Rain
9:48 PM 25.0 °F 13.1 °F 19.9 °F 81% 29.81 in 7.0 mi WNW 13.8 mph - 0.00 in Snow Light Snow
9:55 PM 25.0 °F 12.6 °F 19.9 °F 81% 29.83 in 6.0 mi WNW 15.0 mph - 0.00 in Snow Light Snow
10:30 PM 24.1 °F 11.0 °F 19.0 °F 81% 29.84 in 2.5 mi WNW 16.1 mph 25.3 mph 0.00 in Snow Light Snow
10:34 PM 24.1 °F 12.0 °F 19.0 °F 81% 29.85 in 3.0 mi NW 13.8 mph - 0.00 in Snow Light Snow
10:55 PM 24.1 °F 11.0 °F 18.0 °F 77% 29.88 in 10.0 mi WNW 16.1 mph 25.3 mph 0.00 in   Overcast
11:55 PM 23.0 °F 11.1 °F 18.0 °F 81% 29.90 in 4.0 mi WNW 12.7 mph 20.7 mph 0.00 in Snow Light Snow